This demonstration page uses our WeatherBlox Daily Observations layout. Learn more.

Left ArrowRight Arrow

39.08367, -84.50855

Hourly Observations for April 30, 2022

Temp ( °F °C ) Dew Point ( °F °C ) Humidity (%) Winds ( mph kmh ) Pressure ( in mb ) Visibility ( mi km ) Precip ( " mm )
12:53 am 00:53 Cloudy with Light Rain 61 16.1 41 5 48 48 Calm 30.05 1018 10 16 0.00 0.00
1:53 am 01:53 Cloudy with Light Rain 55 12.8 52 11.1 90 90 NNE 3 6 30.05 1018 9 14 0.01 0.25
2:53 am 02:53 Cloudy with Light Rain 53 11.7 53 11.7 100 100 E 3 6 30.04 1017 9 14 0.05 1.27
3:27 am 03:27 Cloudy with Rain 53 11.7 52 11.1 96 96 Calm 30.05 1018 2 3 0.06 1.52
3:38 am 03:38 Cloudy with Rain 53 11.7 51 10.6 93 93 Calm 30.05 1018 4 6 0.08 2.03
3:53 am 03:53 Cloudy with Light Rain 52 11.1 50 10 93 93 NE 5 7 30.04 1017 7 11 0.09 2.29
4:53 am 04:53 Cloudy 53 11.7 48 8.9 83 83 E 5 7 30.04 1017 10 16 0.00 0.00
5:53 am 05:53 Cloudy 52 11.1 49 9.4 89 89 NNE 7 11 30.03 1017 10 16 0.00 0.00
6:53 am 06:53 Cloudy 52 11.1 49 9.4 89 89 NNE 6 9 30.04 1017 10 16 0.00 0.00
7:53 am 07:53 Cloudy 53 11.7 50 10 89 89 NNE 3 6 30.06 1018 10 16 0.00 0.00
8:53 am 08:53 Mostly Sunny 55 12.8 52 11.1 90 90 NNE 6 9 30.04 1017 10 16 0.01 0.25
9:53 am 09:53 Partly Cloudy 61 16.1 55 12.8 81 81 E 9 15 30.04 1017 10 16 0.00 0.00
10:53 am 10:53 Cloudy 62 16.7 56 13.3 80 80 E 6 9 30.02 1017 10 16 0.00 0.00
11:53 am 11:53 Cloudy 65 18.3 57 13.9 76 76 SE 12 19 30.02 1017 10 16 0.00 0.00
12:53 pm 12:53 Cloudy 65 18.3 58 14.4 78 78 S 7 11 30.01 1016 10 16 0.00 0.00
1:53 pm 13:53 Mostly Sunny 66 18.9 59 15 78 78 ESE 9 15 29.98 1015 10 16 0.00 0.00
2:53 pm 14:53 Mostly Cloudy 67 19.4 60 15.6 79 79 VRB 6 9 29.95 1014 10 16 0.00 0.00
3:53 pm 15:53 Sunny 70 21.1 61 16.1 73 73 VRB 7 11 29.92 1013 10 16 0.00 0.00
4:53 pm 16:53 Sunny 71 21.7 61 16.1 71 71 E 8 13 29.90 1013 10 16 0.00 0.00
5:53 pm 17:53 Partly Cloudy 71 21.7 61 16.1 71 71 SE 7 11 29.89 1012 10 16 0.00 0.00
6:53 pm 18:53 Sunny 71 21.7 60 15.6 68 68 SE 12 19 29.86 1011 10 16 0.00 0.00
7:53 pm 19:53 Sunny 69 20.6 59 15 70 70 VRB 5 7 29.88 1012 10 16 0.00 0.00
8:53 pm 20:53 Clear 67 19.4 59 15 76 76 SE 7 11 29.88 1012 10 16 0.00 0.00
9:53 pm 21:53 Mostly Clear 66 18.9 59 15 78 78 VRB 3 6 29.90 1012 10 16 0.00 0.00
10:53 pm 22:53 Mostly Cloudy with Light Rain 65 18.3 59 15 81 81 VRB 5 7 29.87 1012 8 13 0.00 0.00
11:53 pm 23:53 Clear 66 18.9 58 14.4 75 75 VRB 3 6 29.83 1010 10 16 0.00 0.00

Powered by AerisWeather